TimeMDT,TemperatureF,Dew PointF,Humidity,Sea Level PressureIn,VisibilityMPH,Wind Direction,Wind SpeedMPH,Gust SpeedMPH,PrecipitationIn,Events,Conditions,WindDirDegrees,DateUTC
12:58 AM,71.1,54.0,55,29.98,10.0,South,10.4,-,N/A,,Clear,170,2013-07-16 06:58:00
1:58 AM,70.3,51.6,51,29.98,10.0,South,12.7,-,N/A,,Partly Cloudy,180,2013-07-16 07:58:00
2:58 AM,68.5,50.9,53,29.98,10.0,South,10.4,-,N/A,,Clear,180,2013-07-16 08:58:00
3:58 AM,66.0,49.5,55,29.98,10.0,SSE,10.4,-,N/A,,Clear,160,2013-07-16 09:58:00
4:58 AM,64.6,48.4,56,29.99,10.0,South,8.1,-,N/A,,Clear,180,2013-07-16 10:58:00
5:58 AM,63.3,48.9,59,30.00,10.0,South,8.1,-,N/A,,Clear,180,2013-07-16 11:58:00
6:58 AM,66.6,50.2,56,30.02,10.0,South,10.4,-,N/A,,Clear,180,2013-07-16 12:58:00
7:58 AM,72.3,51.6,48,30.03,10.0,South,12.7,-,N/A,,Clear,170,2013-07-16 13:58:00
8:58 AM,78.6,52.7,40,30.04,10.0,South,12.7,-,N/A,,Clear,170,2013-07-16 14:58:00
9:58 AM,83.3,51.8,34,30.03,10.0,South,11.5,18.4,N/A,,Clear,180,2013-07-16 15:58:00
10:58 AM,86.2,51.8,31,30.04,10.0,South,15.0,23.0,N/A,,Clear,170,2013-07-16 16:58:00
11:58 AM,86.9,50.7,29,30.04,10.0,South,17.3,24.2,N/A,,Clear,170,2013-07-16 17:58:00
12:58 PM,88.9,49.6,26,30.04,10.0,South,15.0,20.7,N/A,,Clear,180,2013-07-16 18:58:00
1:58 PM,90.1,48.9,24,30.03,10.0,South,12.7,29.9,N/A,,Clear,190,2013-07-16 19:58:00
2:24 PM,91.4,50.0,24,30.11,10.0,SSW,13.8,-,N/A,,Clear,200,2013-07-16 20:24:00
2:58 PM,91.8,51.6,25,30.03,10.0,SSE,17.3,20.7,N/A,,Clear,160,2013-07-16 20:58:00
3:58 PM,91.6,50.9,25,30.03,10.0,South,12.7,17.3,N/A,,Clear,170,2013-07-16 21:58:00
4:58 PM,91.2,52.3,27,30.03,10.0,South,15.0,19.6,N/A,,Clear,170,2013-07-16 22:58:00
5:58 PM,90.1,52.3,27,30.03,10.0,South,16.1,20.7,N/A,,Clear,170,2013-07-16 23:58:00
6:58 PM,88.2,51.8,29,30.03,10.0,South,12.7,-,N/A,,Clear,170,2013-07-17 00:58:00
7:58 PM,84.0,54.3,36,30.04,10.0,South,9.2,-,N/A,,Clear,170,2013-07-17 01:58:00
8:58 PM,78.4,57.7,49,30.07,10.0,SSE,9.2,-,N/A,,Clear,150,2013-07-17 02:58:00
9:58 PM,75.6,57.6,53,30.08,10.0,SE,9.2,-,N/A,,Clear,140,2013-07-17 03:58:00
10:58 PM,73.6,56.8,56,30.10,10.0,SSE,6.9,-,N/A,,Clear,150,2013-07-17 04:58:00
11:58 PM,72.0,56.7,58,30.10,10.0,SE,6.9,-,N/A,,Clear,140,2013-07-17 05:58:00